Voltar ao catálogo

STARLINK-4107

AtivoComunicaçõesVLEO
NORAD 53287·PAYLOAD·🇺🇸 United States

Lançado Jul 24, 2022 de Cape Canaveral Space Force Station

Loading…

Próximas Passagens (próximas 24 horas)

TLE

AtualizadoSource: CelesTrak SupGP

Época: Sep 14, 2026, 14:22 UTC

1 53287C 22086AX  26257.59909722 -.00031693  00000+0 -96176-3 0  2570
2 53287  53.1598  41.6165 0001273  83.5372 343.9351 15.33562170    14

Acompanhe STARLINK-4107 em tempo real com AllMySat

Download on the App Store